This is the latest recevied weather packets stored in our database for station/object K7FRY. If no packets are shown the sender has not sent any weather packets the latest 10 day(s).
| Time | Temp. | Humidity | Pressure | Rain* | Wind** | Luminosity | Snow |
|---|---|---|---|---|---|---|---|
| 1777973802 | 14.44° C | 99% | 1014 hPa | 3.56 mm | - | 0 W/m² | - |
| 1777973500 | 14.44° C | 99% | 1013.6 hPa | 3.05 mm | - | 0 W/m² | - |
| 1777973196 | 14.44° C | 99% | 1013.9 hPa | 3.05 mm | - | 0 W/m² | - |
| 1777972895 | 14.44° C | 99% | 1014.5 hPa | 1.27 mm | - | 0 W/m² | - |
| 1777972592 | 14.44° C | 99% | 1014.2 hPa | 1.78 mm | - | 0 W/m² | - |
| 1777972290 | 14.44° C | 99% | 1014.8 hPa | 0 mm | - | 0 W/m² | - |
| 1777971987 | 14.44° C | 99% | 1014.9 hPa | 1.27 mm | - | 0 W/m² | - |
| 1777971685 | 14.44° C | 99% | 1015 hPa | 3.05 mm | - | 0 W/m² | - |
| 1777971382 | 14.44° C | 99% | 1015.1 hPa | 1.78 mm | - | 0 W/m² | - |
| 1777971080 | 14.44° C | 99% | 1015.2 hPa | 1.27 mm | - | 0 W/m² | - |
| 1777970778 | 14.44° C | 99% | 1015.2 hPa | 1.27 mm | - | 0 W/m² | - |
| 1777970476 | 14.44° C | 99% | 1015.3 hPa | 1.78 mm | - | 0 W/m² | - |
| 1777970173 | 14.44° C | 99% | 1015.4 hPa | 1.78 mm | - | 0 W/m² | - |
| 1777969870 | 14.44° C | 99% | 1015.8 hPa | 1.27 mm | - | 0 W/m² | - |
| 1777969565 | 14.44° C | 99% | 1015.6 hPa | 1.78 mm | - | 0 W/m² | - |
| 1777969263 | 14.44° C | 98% | 1015.5 hPa | 3.56 mm | - | 0 W/m² | - |
| 1777968959 | 14.44° C | 98% | 1015.4 hPa | 3.05 mm | - | 0 W/m² | - |
| 1777968656 | 14.44° C | 98% | 1015.8 hPa | 3.05 mm | - | 0 W/m² | - |
| 1777968352 | 14.44° C | 98% | 1015.8 hPa | 3.05 mm | - | 0 W/m² | - |
| 1777968049 | 14.44° C | 98% | 1015.9 hPa | 3.05 mm | - | 0 W/m² | - |
| 1777967745 | 14.44° C | 98% | 1016 hPa | 3.05 mm | - | 0 W/m² | - |
| 1777967442 | 14.44° C | 98% | 1016.3 hPa | 1.27 mm | - | 0 W/m² | - |
| 1777967139 | 14.44° C | 98% | 1016.4 hPa | 0 mm | - | 0 W/m² | - |
| 1777966836 | 14.44° C | 97% | 1016 hPa | 1.78 mm | - | 0 W/m² | - |
| 1777966533 | 14.44° C | 97% | 1015.8 hPa | 0 mm | - | 0 W/m² | - |
* Rain latest hour (hover to see other rain measurements)
** Current wind speed in m/s (hover to see current wind gust speed)